Printer-friendly version

IAU Minor Planet Center

Minor Planet Center

MPEC 2001-M38: 2001 MY7

The following Minor Planet Electronic Circular may be linked-to from your own Web pages, but must not otherwise be redistributed electronically.


Read MPEC 2001-M37 Read MPEC 2001-M39


M.P.E.C. 2001-M38                                Issued 2001 June 25, 12:57 UT

     The Minor Planet Electronic Circulars contain information on unusual
         minor planets and routine data on comets.  They are published
   on behalf of Commission 20 of the International Astronomical Union by the
          Minor Planet Center, Smithsonian Astrophysical Observatory,
                          Cambridge, MA 02138, U.S.A.

             Prepared using the Tamkin Foundation Computer Network

                              MPC@CFA.HARVARD.EDU
          URL http://cfa-www.harvard.edu/iau/mpc.html  ISSN 1523-6714

                                   2001 MY7

Observations:
     K01M07Y* C2001 06 21.25160 17 29 45.83 -04 18 07.2          18.3        704
     K01M07Y  C2001 06 21.26428 17 29 46.20 -04 19 32.4          19.0        704
     K01M07Y  C2001 06 21.27700 17 29 46.58 -04 20 58.2          19.1        704
     K01M07Y  C2001 06 21.94403 17 30 20.01 -05 38 18.2          19.0 V      493
     K01M07Y  C2001 06 21.94502 17 30 20.05 -05 38 25.2                      493
     K01M07Y  C2001 06 21.94597 17 30 20.07 -05 38 31.8                      493
     K01M07Y  C2001 06 22.12292 17 30 30.26 -05 59 46.6          18.7 R      649
     K01M07Y  C2001 06 22.12950 17 30 30.61 -06 00 32.4          18.5 R      649
     K01M07Y  C2001 06 22.13120 17 30 30.65 -06 00 45.1          18.8 R      649
     K01M07Y  C2001 06 22.20050 17 30 33.35 -06 09 13.0                      918
     K01M07Y  C2001 06 22.20347 17 30 33.40 -06 09 33.2                      918
     K01M07Y  C2001 06 22.20513 17 30 33.52 -06 09 46.8                      918
     K01M07Y  C2001 06 22.21454 17 30 33.90 -06 10 54.7          19.7 R      918
     K01M07Y  C2001 06 22.27242 17 30 35.67 -06 17 53.2          18.4 R      734
     K01M07Y  C2001 06 22.28045 17 30 35.98 -06 18 58.3          18.3 R      734
     K01M07Y  C2001 06 22.38530 17 30 39.88 -06 31 44.6          19.3 R      649
     K01M07Y  C2001 06 22.38722 17 30 39.94 -06 31 59.2          18.9 R      649
     K01M07Y  C2001 06 22.38902 17 30 40.00 -06 32 12.1          18.5 R      649
     K01M07Y  C2001 06 22.39075 17 30 40.12 -06 32 24.4          18.0 R      649
     K01M07Y  C2001 06 23.31223 17 31 32.52 -08 30 20.0          18.9 R      649
     K01M07Y  C2001 06 23.31625 17 31 32.68 -08 30 52.4          18.8 R      649
     K01M07Y  C2001 06 23.33252 17 31 33.38 -08 33 02.1          18.6 R      649
     K01M07Y  C2001 06 23.33575 17 31 33.49 -08 33 26.9          18.8 R      649
     K01M07Y  C2001 06 23.92484 17 32 11.06 -09 53 41.7                      046
     K01M07Y  C2001 06 23.92841 17 32 11.33 -09 54 10.9                      046
     K01M07Y  C2001 06 23.93111 17 32 11.44 -09 54 33.6          18.7 V      046
     K01M07Y  C2001 06 23.93264 17 32 11.44 -09 54 44.5                      046
     K01M07Y  C2001 06 23.95959 17 32 12.72 -09 58 31.3                      557
     K01M07Y  C2001 06 23.96260 17 32 12.86 -09 58 56.2                      557
     K01M07Y  C2001 06 23.96334 17 32 12.92 -09 59 02.4                      557
     K01M07Y IC2001 06 23.96409 17 32 12.88 -09 59 10.2                      557
     K01M07Y  C2001 06 23.97233 17 32 13.35 -10 00 18.3                      557
     K01M07Y  C2001 06 23.97308 17 32 13.45 -10 00 24.0                      557
     K01M07Y  C2001 06 23.97383 17 32 13.39 -10 00 30.4                      557
     K01M07Y  C2001 06 23.97458 17 32 13.48 -10 00 35.7          19.5 V      557
     K01M07Y 4C2001 06 24.25678 17 32 32.59 -10 40 16.6                      673
     K01M07Y 4C2001 06 24.26376 17 32 33.23 -10 41 15.8                      673
     K01M07Y 4C2001 06 24.27027 17 32 33.58 -10 42 11.9                      673
     K01M07Y  C2001 06 24.88091 17 33 15.01 -12 11 33.0          18.3 V      046
     K01M07Y  C2001 06 24.88961 17 33 15.48 -12 12 54.2                      046
     K01M07Y  C2001 06 24.89110 17 33 15.61 -12 13 05.5          18.5 V      046
     K01M07Y  C2001 06 24.95498 17 33 18.96 -12 22 43.0                      557
     K01M07Y  C2001 06 24.95844 17 33 19.14 -12 23 12.7                      557
     K01M07Y  C2001 06 24.95912 17 33 19.18 -12 23 19.2          19.0 V      557

Observer details:
046 Klet.  Observers J. Ticha, M. Tichy.  0.57-m f/5.2 reflector + CCD.
493 Calar Alto.  Observers DANEOPS Team (M. Busch, A. Seib, F. Hormuth).
    Measurers R. Stoss, A. Gnadig, A. Doppler.  1.52-m reflector + CCD.
557 Ondrejov.  Observers P. Pravec, P. Kusnirak.  0.65-m f/3.6
    reflector + CCD.
649 Powell Observatory, Louisburg.  Observers K. Smalley, D. Trentman.
    Measurer K. Smalley.  0.75-m Newtonian + CCD.
673 Table Mountain Observatory, Wrightwood.  Observers M. Hicks, T. Ha,
    D. Esqueda.  0.6-m reflector + CCD.
704 Lincoln Laboratory ETS, New Mexico.  Observers M. Blythe, F. Shelly,
    M. Bezpalko, R. Huber, L. Manguso, S. Adams.  Measurers J. Stuart,
    R. Sayer, J. B. Evans, H. Viggh.  1.0-m f/2.15 reflector + CCD.
734 Farpoint Observatory.  Observer G. Hug.  0.30-m Schmidt-Cassegrain + CCD.
918 Badlands Observatory, Quinn.  Observer R. Dyvig.  0.66-m f/4.8 reflector
    + CCD.

Orbital elements:
2001 MY7
Epoch 2001 June 20.0 TT = JDT 2452080.5                 Spahr
M 353.95180              (2000.0)            P               Q
n   0.17756951     Peri.  207.07624     +0.51116040     +0.77945811
a   3.1349007      Node    95.75919     -0.70786724     +0.62078195
e   0.6504271      Incl.   21.34591     -0.48748232     -0.08411195
P   5.55           H   22.0           G   0.15
From 44 observations 2001 June 21-24.

Ephemeris:
2001 MY7                 a,e,i = 3.13, 0.65, 21                  q = 1.0959
Date    TT    R. A. (2000) Decl.     Delta      r     Elong.  Phase     V
2001 06 20    17 28.83   -02 03.7    0.179    1.183   157.7    19.0    19.6
2001 06 25    17 33.37   -12 28.5    0.148    1.161   165.2    12.9    18.9
2001 06 30    17 41.41   -27 23.2    0.127    1.141   167.0    11.6    18.5
2001 07 05    17 56.89   -46 01.4    0.119    1.124   153.8    23.5    18.7
2001 07 10    18 31.15   -64 22.0    0.125    1.112   137.2    38.4    19.3
2001 07 15    20 08.3    -77 41.6    0.143    1.102   123.7    50.1    19.9
2001 07 20    00 05.8    -81 17.3    0.169    1.097   114.6    57.4    20.4
2001 07 25    02 24.5    -77 12.9    0.199    1.096   108.8    61.3    20.9
2001 07 30    03 09.3    -72 49.9    0.230    1.099   105.4    63.0    21.3
2001 08 04    03 26.89   -69 20.6    0.262    1.105   103.5    63.2    21.6
2001 08 09    03 34.19   -66 38.0    0.294    1.116   102.8    62.4    21.8

Timothy B. Spahr             (C) Copyright 2001 MPC           M.P.E.C. 2001-M38

Read MPEC 2001-M37 Read MPEC 2001-M39


Our Web policy. Index to the CBAT/MPC/ICQ pages.


Valid HTML 4.01!